| time (UTC) | temp C | wind direction | speed KPH | gust KPH | rain 1hr cm | rain 24hr cm | rain mn cm | humidity % | barometer mb |
| 20260510104444 | 16 | 49 | 22.5 | 43.5 | 0.00 | 0.36 | 0.00 | 66 | 1010.0 |
| 20260510103944 | 16 | 23 | 19.3 | 45.1 | 0.00 | 0.36 | 0.00 | 65 | 1010.0 |
| 20260510103444 | 16 | 29 | 19.3 | 30.6 | 0.00 | 0.36 | 0.00 | 66 | 1010.0 |
| 20260510102944 | 16 | 85 | 19.3 | 40.2 | 0.00 | 0.36 | 0.00 | 66 | 1010.0 |
| 20260510102444 | 16 | 37 | 19.3 | 45.1 | 0.00 | 0.36 | 0.00 | 66 | 1010.1 |
| 20260510101944 | 16 | 347 | 20.9 | 33.8 | 0.00 | 0.36 | 0.00 | 68 | 1010.0 |
| 20260510101444 | 16 | 53 | 20.9 | 35.4 | 0.00 | 0.36 | 0.00 | 68 | 1010.0 |
| 20260510100944 | 15 | 37 | 20.9 | 37.0 | 0.00 | 0.36 | 0.00 | 69 | 1010.1 |
| 20260510100444 | 15 | 34 | 20.9 | 37.0 | 0.00 | 0.36 | 0.00 | 69 | 1010.1 |
| 20260510095944 | 15 | 59 | 19.3 | 33.8 | 0.00 | 0.36 | 0.00 | 70 | 1010.1 |
| 20260510095444 | 15 | 70 | 20.9 | 33.8 | 0.00 | 0.36 | 0.00 | 71 | 1010.1 |
| 20260510094944 | 14 | 52 | 22.5 | 45.1 | 0.00 | 0.36 | 0.00 | 71 | 1010.2 |
| 20260510094444 | 14 | 26 | 19.3 | 37.0 | 0.00 | 0.36 | 0.00 | 71 | 1010.2 |
| 20260510093944 | 14 | 43 | 20.9 | 33.8 | 0.00 | 0.36 | 0.00 | 71 | 1010.1 |
| 20260510093444 | 14 | 52 | 24.1 | 41.8 | 0.00 | 0.36 | 0.00 | 70 | 1010.2 |
| 20260510092944 | 14 | 359 | 22.5 | 49.9 | 0.00 | 0.36 | 0.00 | 70 | 1010.2 |
| 20260510092444 | 14 | 47 | 20.9 | 35.4 | 0.00 | 0.36 | 0.00 | 70 | 1010.1 |
| 20260510091944 | 14 | 47 | 19.3 | 38.6 | 0.00 | 0.36 | 0.00 | 70 | 1010.2 |
| 20260510091444 | 14 | 30 | 19.3 | 37.0 | 0.00 | 0.36 | 0.00 | 71 | 1010.2 |
| 20260510090944 | 14 | 25 | 22.5 | 38.6 | 0.00 | 0.36 | 0.00 | 71 | 1010.2 |
| 20260510090444 | 14 | 45 | 20.9 | 38.6 | 0.00 | 0.36 | 0.00 | 71 | 1010.1 |
| 20260510085946 | 14 | 48 | 20.9 | 35.4 | 0.00 | 0.36 | 0.00 | 71 | 1010.1 |
| 20260510085444 | 14 | 27 | 20.9 | 38.6 | 0.00 | 0.36 | 0.00 | 70 | 1010.2 |
| 20260510084944 | 14 | 23 | 20.9 | 37.0 | 0.00 | 0.36 | 0.00 | 70 | 1010.2 |
| 20260510084444 | 14 | 54 | 20.9 | 37.0 | 0.00 | 0.36 | 0.00 | 71 | 1010.1 |
| 20260510083944 | 14 | 39 | 20.9 | 32.2 | 0.00 | 0.36 | 0.00 | 71 | 1010.1 |
| 20260510083444 | 14 | 21 | 24.1 | 38.6 | 0.00 | 0.36 | 0.00 | 71 | 1010.1 |
| 20260510082944 | 13 | 59 | 24.1 | 41.8 | 0.00 | 0.36 | 0.00 | 71 | 1010.2 |
| 20260510082444 | 13 | 13 | 25.7 | 40.2 | 0.00 | 0.36 | 0.00 | 71 | 1010.1 |
| 20260510081944 | 13 | 47 | 24.1 | 48.3 | 0.00 | 0.36 | 0.00 | 71 | 1010.2 |
| 20260510081444 | 13 | 28 | 24.1 | 40.2 | 0.00 | 0.36 | 0.00 | 72 | 1010.2 |
| 20260510080944 | 13 | 349 | 24.1 | 40.2 | 0.00 | 0.36 | 0.00 | 72 | 1010.2 |
| 20260510080444 | 13 | 60 | 22.5 | 37.0 | 0.00 | 0.36 | 0.00 | 73 | 1010.2 |
| 20260510075944 | 13 | 48 | 20.9 | 41.8 | 0.00 | 0.36 | 0.00 | 73 | 1010.2 |
| 20260510075444 | 13 | 59 | 20.9 | 37.0 | 0.00 | 0.36 | 0.00 | 74 | 1010.3 |
| 20260510074944 | 13 | 98 | 24.1 | 41.8 | 0.00 | 0.36 | 0.00 | 74 | 1010.2 |
| 20260510074444 | 13 | 31 | 22.5 | 37.0 | 0.00 | 0.36 | 0.00 | 74 | 1010.3 |
| 20260510073944 | 13 | 27 | 20.9 | 43.5 | 0.00 | 0.36 | 0.00 | 75 | 1010.3 |
| 20260510073444 | 12 | 37 | 20.9 | 45.1 | 0.00 | 0.36 | 0.00 | 76 | 1010.2 |
| 20260510072944 | 12 | 32 | 22.5 | 43.5 | 0.00 | 0.36 | 0.00 | 77 | 1010.2 |
| 20260510072444 | 12 | 38 | 24.1 | 45.1 | 0.00 | 0.36 | 0.00 | 78 | 1010.3 |
| 20260510071944 | 12 | 39 | 24.1 | 40.2 | 0.00 | 0.36 | 0.00 | 79 | 1010.3 |
| 20260510071444 | 12 | 34 | 22.5 | 40.2 | 0.00 | 0.36 | 0.00 | 80 | 1010.3 |
| 20260510070944 | 12 | 77 | 22.5 | 40.2 | 0.00 | 0.36 | 0.00 | 80 | 1010.4 |
| 20260510070444 | 12 | 62 | 24.1 | 38.6 | 0.00 | 0.36 | 0.00 | 80 | 1010.3 |
| 20260510065946 | 12 | 81 | 20.9 | 40.2 | 0.00 | 0.36 | 0.00 | 81 | 1010.4 |
| 20260510065444 | 12 | 71 | 19.3 | 38.6 | 0.00 | 0.36 | 0.00 | 81 | 1010.4 |
| 20260510064944 | 12 | 39 | 19.3 | 35.4 | 0.00 | 0.36 | 0.00 | 81 | 1010.4 |
| 20260510064445 | 12 | 48 | 19.3 | 38.6 | 0.00 | 0.36 | 0.00 | 81 | 1010.3 |
| 20260510063944 | 12 | 52 | 20.9 | 38.6 | 0.00 | 0.36 | 0.00 | 81 | 1010.2 |
| 20260510063444 | 12 | 59 | 19.3 | 37.0 | 0.00 | 0.36 | 0.00 | 81 | 1010.3 |
| 20260510062945 | 12 | 15 | 19.3 | 38.6 | 0.00 | 0.36 | 0.00 | 81 | 1010.2 |
| 20260510062444 | 12 | 49 | 20.9 | 40.2 | 0.00 | 0.36 | 0.00 | 82 | 1010.1 |
| 20260510061947 | 12 | 18 | 20.9 | 40.2 | 0.00 | 0.36 | 0.00 | 82 | 1010.0 |
| 20260510061444 | 12 | 349 | 17.7 | 43.5 | 0.00 | 0.36 | 0.00 | 82 | 1010.0 |
| 20260510060945 | 12 | 19 | 17.7 | 35.4 | 0.00 | 0.36 | 0.00 | 83 | 1010.1 |
| 20260510060445 | 12 | 50 | 19.3 | 33.8 | 0.00 | 0.36 | 0.00 | 83 | 1010.0 |
| 20260510055947 | 12 | 8 | 17.7 | 38.6 | 0.00 | 0.36 | 0.00 | 83 | 1009.9 |
| 20260510055445 | 12 | 29 | 16.1 | 40.2 | 0.00 | 0.36 | 0.00 | 83 | 1010.0 |
| 20260510054945 | 12 | 48 | 17.7 | 29.0 | 0.00 | 0.36 | 0.00 | 83 | 1009.8 |
| 20260510054445 | 12 | 28 | 19.3 | 41.8 | 0.00 | 0.36 | 0.00 | 83 | 1009.7 |
| 20260510053945 | 12 | 54 | 19.3 | 38.6 | 0.00 | 0.36 | 0.00 | 83 | 1009.7 |
| 20260510053445 | 12 | 98 | 19.3 | 38.6 | 0.00 | 0.36 | 0.00 | 83 | 1009.7 |
| 20260510052945 | 12 | 55 | 19.3 | 35.4 | 0.00 | 0.36 | 0.00 | 83 | 1009.6 |
| 20260510052445 | 12 | 46 | 19.3 | 32.2 | 0.00 | 0.36 | 0.00 | 83 | 1009.6 |
| 20260510051945 | 12 | 39 | 17.7 | 33.8 | 0.00 | 0.36 | 0.00 | 83 | 1009.7 |
| 20260510051445 | 12 | 13 | 17.7 | 32.2 | 0.00 | 0.36 | 0.00 | 83 | 1009.9 |
| 20260510050945 | 12 | 23 | 19.3 | 35.4 | 0.00 | 0.36 | 0.00 | 83 | 1009.8 |
| 20260510050445 | 12 | 59 | 19.3 | 29.0 | 0.00 | 0.36 | 0.00 | 84 | 1009.9 |
| 20260510045945 | 12 | 14 | 19.3 | 35.4 | 0.00 | 0.36 | 0.00 | 84 | 1009.9 |
| 20260510045445 | 12 | 33 | 17.7 | 35.4 | 0.00 | 0.36 | 0.00 | 84 | 1009.9 |
| 20260510044945 | 12 | 32 | 17.7 | 32.2 | 0.00 | 0.36 | 0.00 | 84 | 1009.9 |
| 20260510044445 | 12 | 62 | 19.3 | 38.6 | 0.00 | 0.36 | 0.00 | 84 | 1009.9 |
| 20260510043945 | 12 | 14 | 17.7 | 33.8 | 0.00 | 0.36 | 0.00 | 84 | 1009.9 |
| 20260510043445 | 12 | 8 | 17.7 | 41.8 | 0.00 | 0.36 | 0.00 | 84 | 1010.0 |
| 20260510042945 | 12 | 59 | 17.7 | 35.4 | 0.00 | 0.36 | 0.00 | 84 | 1009.9 |
| 20260510042445 | 12 | 59 | 17.7 | 37.0 | 0.00 | 0.36 | 0.00 | 84 | 1010.0 |
| 20260510041945 | 12 | 42 | 17.7 | 30.6 | 0.00 | 0.36 | 0.00 | 84 | 1010.0 |
| 20260510041445 | 12 | 56 | 17.7 | 33.8 | 0.00 | 0.36 | 0.00 | 84 | 1010.0 |
| 20260510040945 | 12 | 354 | 17.7 | 32.2 | 0.00 | 0.36 | 0.00 | 84 | 1009.9 |
| 20260510040445 | 12 | 50 | 14.5 | 25.7 | 0.00 | 0.36 | 0.00 | 84 | 1009.8 |
| 20260510035945 | 12 | 57 | 14.5 | 29.0 | 0.00 | 0.36 | 0.00 | 84 | 1009.9 |
| 20260510035445 | 12 | 54 | 16.1 | 30.6 | 0.00 | 0.36 | 0.00 | 84 | 1009.9 |
| 20260510034945 | 12 | 23 | 17.7 | 29.0 | 0.00 | 0.36 | 0.00 | 84 | 1010.0 |
| 20260510034445 | 12 | 70 | 16.1 | 33.8 | 0.00 | 0.36 | 0.00 | 84 | 1010.0 |
| 20260510033945 | 12 | 45 | 16.1 | 24.1 | 0.00 | 0.36 | 0.00 | 84 | 1010.1 |
| 20260510033445 | 12 | 33 | 19.3 | 35.4 | 0.00 | 0.36 | 0.00 | 84 | 1010.1 |
| 20260510032945 | 12 | 24 | 17.7 | 35.4 | 0.00 | 0.36 | 0.00 | 84 | 1010.1 |
| 20260510032445 | 12 | 22 | 16.1 | 27.4 | 0.00 | 0.36 | 0.00 | 84 | 1010.1 |
| 20260510031945 | 12 | 28 | 17.7 | 32.2 | 0.00 | 0.36 | 0.00 | 83 | 1010.1 |
| 20260510031445 | 12 | 48 | 17.7 | 30.6 | 0.00 | 0.36 | 0.00 | 83 | 1010.1 |
| 20260510030945 | 12 | 54 | 17.7 | 30.6 | 0.00 | 0.36 | 0.00 | 83 | 1010.1 |
| 20260510030445 | 12 | 43 | 16.1 | 33.8 | 0.00 | 0.36 | 0.00 | 83 | 1010.1 |
| 20260510025945 | 12 | 53 | 16.1 | 29.0 | 0.00 | 0.36 | 0.00 | 83 | 1010.1 |
| 20260510025445 | 12 | 60 | 17.7 | 25.7 | 0.00 | 0.36 | 0.00 | 83 | 1010.1 |
| 20260510024945 | 12 | 85 | 17.7 | 33.8 | 0.00 | 0.36 | 0.00 | 83 | 1010.2 |
| 20260510024445 | 12 | 13 | 17.7 | 32.2 | 0.00 | 0.36 | 0.00 | 82 | 1010.1 |
| 20260510023945 | 12 | 80 | 16.1 | 32.2 | 0.00 | 0.36 | 0.00 | 82 | 1010.3 |
| 20260510023445 | 12 | 97 | 17.7 | 30.6 | 0.00 | 0.36 | 0.00 | 82 | 1010.2 |
| 20260510022945 | 12 | 81 | 17.7 | 35.4 | 0.00 | 0.36 | 0.00 | 83 | 1010.2 |
| 20260510022445 | 12 | 28 | 16.1 | 33.8 | 0.00 | 0.36 | 0.00 | 82 | 1010.3 |
| 20260510021945 | 12 | 112 | 17.7 | 29.0 | 0.00 | 0.36 | 0.00 | 82 | 1010.4 |
| 20260510021445 | 12 | 47 | 17.7 | 33.8 | 0.00 | 0.36 | 0.00 | 83 | 1010.4 |
| 20260510020945 | 12 | 100 | 16.1 | 32.2 | 0.00 | 0.36 | 0.00 | 82 | 1010.4 |
| 20260510020445 | 12 | 359 | 17.7 | 30.6 | 0.00 | 0.36 | 0.00 | 82 | 1010.5 |
| 20260510015945 | 12 | 45 | 17.7 | 35.4 | 0.00 | 0.36 | 0.00 | 82 | 1010.4 |
| 20260510015445 | 12 | 60 | 19.3 | 32.2 | 0.00 | 0.36 | 0.00 | 83 | 1010.4 |
| 20260510014945 | 12 | 44 | 19.3 | 30.6 | 0.00 | 0.36 | 0.00 | 82 | 1010.5 |
| 20260510014445 | 12 | 83 | 19.3 | 38.6 | 0.00 | 0.36 | 0.00 | 82 | 1010.6 |
| 20260510013945 | 12 | 33 | 19.3 | 32.2 | 0.00 | 0.36 | 0.00 | 82 | 1010.7 |
| 20260510013445 | 12 | 342 | 17.7 | 29.0 | 0.00 | 0.36 | 0.00 | 82 | 1010.8 |
| 20260510012945 | 12 | 39 | 17.7 | 38.6 | 0.00 | 0.36 | 0.00 | 82 | 1010.8 |
| 20260510012445 | 12 | 43 | 19.3 | 35.4 | 0.00 | 0.36 | 0.00 | 82 | 1010.9 |
| 20260510011945 | 12 | 69 | 20.9 | 32.2 | 0.00 | 0.36 | 0.00 | 82 | 1011.0 |
| 20260510011445 | 12 | 74 | 20.9 | 35.4 | 0.00 | 0.36 | 0.00 | 82 | 1011.0 |
| 20260510010945 | 12 | 70 | 19.3 | 33.8 | 0.00 | 0.36 | 0.00 | 82 | 1011.0 |
| 20260510010445 | 12 | 39 | 17.7 | 37.0 | 0.00 | 0.36 | 0.00 | 82 | 1011.1 |
| 20260510005945 | 12 | 9 | 17.7 | 35.4 | 0.00 | 0.36 | 0.00 | 83 | 1011.1 |
| 20260510005445 | 12 | 36 | 19.3 | 32.2 | 0.00 | 0.36 | 0.00 | 83 | 1011.1 |
| 20260510004945 | 12 | 92 | 19.3 | 35.4 | 0.00 | 0.36 | 0.00 | 83 | 1011.1 |
| 20260510004445 | 12 | 64 | 19.3 | 33.8 | 0.00 | 0.36 | 0.00 | 83 | 1011.1 |
| 20260510003945 | 12 | 52 | 19.3 | 38.6 | 0.00 | 0.36 | 0.00 | 83 | 1011.2 |
| 20260510003445 | 12 | 52 | 19.3 | 29.0 | 0.00 | 0.36 | 0.00 | 83 | 1011.2 |
| 20260510002945 | 12 | 31 | 19.3 | 35.4 | 0.00 | 0.36 | 0.00 | 83 | 1011.2 |
| 20260510002445 | 13 | 25 | 20.9 | 38.6 | 0.00 | 0.36 | 0.00 | 83 | 1011.3 |
| 20260510001945 | 13 | 31 | 19.3 | 37.0 | 0.00 | 0.36 | 0.00 | 82 | 1011.4 |
| 20260510001445 | 13 | 35 | 16.1 | 35.4 | 0.00 | 0.36 | 0.00 | 82 | 1011.5 |
| 20260510000945 | 13 | 40 | 16.1 | 32.2 | 0.00 | 0.36 | 0.00 | 82 | 1011.4 |
| 20260510000448 | 13 | 58 | 17.7 | 30.6 | 0.00 | 0.36 | 0.00 | 82 | 1011.5 |
| 20260509235945 | 13 | 33 | 17.7 | 27.4 | 0.00 | 0.36 | 0.00 | 82 | 1011.5 |
| 20260509235445 | 13 | 36 | 17.7 | 29.0 | 0.00 | 0.36 | 0.00 | 82 | 1011.5 |
| 20260509234945 | 13 | 4 | 16.1 | 33.8 | 0.00 | 0.36 | 0.00 | 82 | 1011.5 |
| 20260509234445 | 13 | 45 | 14.5 | 29.0 | 0.00 | 0.36 | 0.00 | 83 | 1011.5 |
| 20260509233945 | 13 | 31 | 16.1 | 30.6 | 0.00 | 0.36 | 0.00 | 83 | 1011.6 |
| 20260509233445 | 13 | 29 | 14.5 | 29.0 | 0.03 | 0.36 | 0.00 | 83 | 1011.8 |
| 20260509232945 | 13 | 43 | 14.5 | 27.4 | 0.03 | 0.36 | 0.00 | 83 | 1011.8 |
| 20260509232445 | 12 | 83 | 14.5 | 25.7 | 0.03 | 0.36 | 0.00 | 83 | 1011.8 |
| 20260509231945 | 12 | 47 | 14.5 | 24.1 | 0.03 | 0.36 | 0.00 | 84 | 1011.8 |
| 20260509231445 | 12 | 17 | 12.9 | 29.0 | 0.03 | 0.36 | 0.00 | 84 | 1011.8 |
| 20260509230945 | 12 | 41 | 14.5 | 29.0 | 0.03 | 0.36 | 0.00 | 84 | 1011.9 |
| 20260509230445 | 12 | 31 | 14.5 | 25.7 | 0.03 | 0.36 | 0.36 | 84 | 1011.8 |
| 20260509225945 | 12 | 359 | 12.9 | 30.6 | 0.03 | 0.36 | 0.36 | 84 | 1011.8 |
| 20260509225445 | 12 | 350 | 14.5 | 24.1 | 0.03 | 0.36 | 0.36 | 84 | 1011.7 |
| 20260509224945 | 12 | 39 | 12.9 | 25.7 | 0.05 | 0.36 | 0.36 | 84 | 1011.8 |
| 20260509224445 | 12 | 15 | 12.9 | 29.0 | 0.05 | 0.36 | 0.36 | 84 | 1012.0 |
| 20260509223945 | 13 | 40 | 11.3 | 22.5 | 0.05 | 0.36 | 0.36 | 84 | 1011.9 |
| 20260509223445 | 13 | 62 | 11.3 | 22.5 | 0.05 | 0.33 | 0.33 | 84 | 1011.7 |
| 20260509222945 | 12 | 22 | 11.3 | 27.4 | 0.05 | 0.33 | 0.33 | 84 | 1011.8 |
| 20260509222445 | 13 | 48 | 8.0 | 25.7 | 0.05 | 0.33 | 0.33 | 84 | 1011.8 |
| 20260509221945 | 13 | 79 | 9.7 | 19.3 | 0.08 | 0.33 | 0.33 | 84 | 1011.8 |
| 20260509221445 | 13 | 54 | 9.7 | 20.9 | 0.10 | 0.33 | 0.33 | 84 | 1011.9 |
| 20260509220945 | 13 | 55 | 8.0 | 16.1 | 0.13 | 0.33 | 0.33 | 84 | 1012.0 |
| 20260509220445 | 13 | 41 | 8.0 | 19.3 | 0.13 | 0.33 | 0.33 | 84 | 1012.1 |
| 20260509215945 | 13 | 29 | 6.4 | 16.1 | 0.18 | 0.33 | 0.33 | 84 | 1012.1 |
| 20260509215445 | 13 | 354 | 6.4 | 14.5 | 0.20 | 0.33 | 0.33 | 84 | 1012.1 |
| 20260509214945 | 13 | 43 | 6.4 | 14.5 | 0.20 | 0.30 | 0.30 | 84 | 1012.1 |
| 20260509214445 | 13 | 37 | 8.0 | 16.1 | 0.23 | 0.30 | 0.30 | 83 | 1012.2 |
| 20260509213945 | 13 | 91 | 11.3 | 17.7 | 0.28 | 0.30 | 0.30 | 83 | 1012.2 |
| 20260509213445 | 13 | 73 | 12.9 | 20.9 | 0.25 | 0.28 | 0.28 | 83 | 1012.2 |
| 20260509212945 | 13 | 54 | 12.9 | 25.7 | 0.28 | 0.28 | 0.28 | 83 | 1012.2 |
| 20260509212445 | 13 | 71 | 14.5 | 20.9 | 0.28 | 0.28 | 0.28 | 82 | 1012.1 |
| 20260509211945 | 13 | 58 | 14.5 | 24.1 | 0.25 | 0.25 | 0.25 | 82 | 1012.3 |
| 20260509211445 | 13 | 41 | 14.5 | 29.0 | 0.23 | 0.23 | 0.23 | 81 | 1012.5 |
| 20260509210945 | 13 | 62 | 14.5 | 30.6 | 0.20 | 0.20 | 0.20 | 81 | 1012.5 |
| 20260509210445 | 13 | 86 | 12.9 | 24.1 | 0.20 | 0.20 | 0.20 | 80 | 1012.6 |
| 20260509205945 | 13 | 82 | 12.9 | 24.1 | 0.15 | 0.15 | 0.15 | 79 | 1012.6 |
| 20260509205445 | 13 | 81 | 16.1 | 25.7 | 0.13 | 0.13 | 0.13 | 78 | 1012.4 |
| 20260509204946 | 14 | 54 | 17.7 | 30.6 | 0.10 | 0.10 | 0.10 | 77 | 1012.3 |
| 20260509204446 | 14 | 112 | 16.1 | 29.0 | 0.08 | 0.08 | 0.08 | 75 | 1012.1 |
| 20260509203946 | 15 | 73 | 17.7 | 37.0 | 0.03 | 0.03 | 0.03 | 73 | 1012.0 |
| 20260509203446 | 15 | 27 | 17.7 | 33.8 | 0.03 | 0.03 | 0.03 | 72 | 1011.9 |
| 20260509202946 | 15 | 34 | 16.1 | 32.2 | 0.00 | 0.00 | 0.00 | 71 | 1011.9 |
| 20260509202445 | 15 | 28 | 16.1 | 27.4 | 0.00 | 0.00 | 0.00 | 70 | 1011.8 |
| 20260509201946 | 15 | 21 | 16.1 | 32.2 | 0.00 | 0.00 | 0.00 | 69 | 1011.6 |
| 20260509201446 | 16 | 52 | 16.1 | 25.7 | 0.00 | 0.00 | 0.00 | 69 | 1011.5 |
| 20260509200946 | 16 | 50 | 14.5 | 27.4 | 0.00 | 0.00 | 0.00 | 69 | 1011.6 |
| 20260509200446 | 16 | 49 | 12.9 | 20.9 | 0.00 | 0.00 | 0.00 | 69 | 1011.6 |
| 20260509195946 | 16 | 14 | 12.9 | 22.5 | 0.00 | 0.00 | 0.00 | 68 | 1011.5 |
| 20260509195446 | 16 | 42 | 14.5 | 22.5 | 0.00 | 0.00 | 0.00 | 68 | 1011.5 |
| 20260509195423 | 22 | 75 | 12.9 | 24.1 | 0.00 | 0.25 | 0.18 | 54 | 1012.0 |
| 20260509195418 | 23 | 74 | 12.9 | 25.7 | 0.00 | 0.25 | 0.18 | 51 | 1012.1 |
| 20260509194946 | 16 | 52 | 14.5 | 30.6 | 0.00 | 0.00 | 0.00 | 68 | 1011.5 |
| 20260509194512 | 16 | 12 | 12.9 | 25.7 | 0.00 | 0.00 | 0.00 | 67 | 1011.3 |
| 20260509193946 | 16 | 64 | 12.9 | 22.5 | 0.00 | 0.00 | 0.00 | 67 | 1011.2 |
| 20260509193446 | 16 | 26 | 14.5 | 22.5 | 0.00 | 0.00 | 0.00 | 66 | 1011.3 |
| 20260509192946 | 17 | 29 | 12.9 | 30.6 | 0.00 | 0.00 | 0.00 | 66 | 1011.1 |
| 20260509192446 | 17 | 46 | 11.3 | 19.3 | 0.00 | 0.00 | 0.00 | 66 | 1011.1 |
| 20260509191946 | 17 | 33 | 11.3 | 20.9 | 0.00 | 0.00 | 0.00 | 65 | 1011.0 |
| 20260509191446 | 17 | 58 | 12.9 | 24.1 | 0.00 | 0.00 | 0.00 | 64 | 1011.0 |
| 20260509190946 | 17 | 9 | 12.9 | 27.4 | 0.00 | 0.00 | 0.00 | 64 | 1011.0 |
| 20260509190446 | 18 | 4 | 12.9 | 24.1 | 0.00 | 0.00 | 0.00 | 63 | 1011.0 |
| 20260509185946 | 18 | 11 | 11.3 | 20.9 | 0.00 | 0.00 | 0.00 | 62 | 1011.0 |
| 20260509185446 | 18 | 354 | 11.3 | 24.1 | 0.00 | 0.00 | 0.00 | 62 | 1010.9 |
| 20260509184946 | 18 | 15 | 12.9 | 22.5 | 0.00 | 0.00 | 0.00 | 62 | 1010.9 |
| 20260509184446 | 18 | 340 | 12.9 | 24.1 | 0.00 | 0.00 | 0.00 | 61 | 1010.9 |
| 20260509183946 | 18 | 43 | 11.3 | 25.7 | 0.00 | 0.00 | 0.00 | 61 | 1011.0 |
| 20260509183446 | 18 | 349 | 11.3 | 25.7 | 0.00 | 0.00 | 0.00 | 61 | 1010.9 |
| 20260509182946 | 19 | 359 | 12.9 | 24.1 | 0.00 | 0.00 | 0.00 | 61 | 1010.9 |
| 20260509182446 | 19 | 27 | 12.9 | 29.0 | 0.00 | 0.00 | 0.00 | 60 | 1010.8 |
| 20260509181946 | 19 | 14 | 11.3 | 22.5 | 0.00 | 0.00 | 0.00 | 60 | 1010.8 |
| 20260509181446 | 19 | 354 | 14.5 | 22.5 | 0.00 | 0.00 | 0.00 | 61 | 1010.8 |
| 20260509180946 | 20 | 52 | 12.9 | 25.7 | 0.00 | 0.00 | 0.00 | 60 | 1010.8 |
| 20260509180446 | 20 | 19 | 11.3 | 17.7 | 0.00 | 0.00 | 0.00 | 59 | 1010.9 |
| 20260509175946 | 20 | 50 | 11.3 | 22.5 | 0.00 | 0.00 | 0.00 | 59 | 1010.8 |
| 20260509175446 | 20 | 40 | 9.7 | 20.9 | 0.00 | 0.00 | 0.00 | 59 | 1010.8 |
| 20260509174946 | 20 | 34 | 9.7 | 22.5 | 0.00 | 0.00 | 0.00 | 58 | 1010.8 |
| 20260509174446 | 20 | 42 | 9.7 | 22.5 | 0.00 | 0.00 | 0.00 | 58 | 1010.8 |
| 20260509173946 | 20 | 24 | 12.9 | 22.5 | 0.00 | 0.00 | 0.00 | 59 | 1010.7 |
| 20260509173446 | 20 | 21 | 12.9 | 20.9 | 0.00 | 0.00 | 0.00 | 60 | 1010.8 |
| 20260509172946 | 20 | 9 | 12.9 | 25.7 | 0.00 | 0.00 | 0.00 | 58 | 1010.9 |
| 20260509172446 | 20 | 52 | 14.5 | 25.7 | 0.00 | 0.00 | 0.00 | 58 | 1010.9 |
| 20260509171946 | 20 | 51 | 16.1 | 27.4 | 0.00 | 0.00 | 0.00 | 59 | 1010.7 |
| 20260509171446 | 20 | 14 | 14.5 | 29.0 | 0.00 | 0.00 | 0.00 | 56 | 1010.7 |
| 20260509170946 | 20 | 39 | 12.9 | 24.1 | 0.00 | 0.00 | 0.00 | 57 | 1010.8 |
| 20260509170446 | 20 | 359 | 14.5 | 27.4 | 0.00 | 0.00 | 0.00 | 57 | 1010.8 |
| 20260509165946 | 20 | 39 | 14.5 | 27.4 | 0.00 | 0.00 | 0.00 | 57 | 1010.8 |
| 20260509165446 | 20 | 9 | 12.9 | 22.5 | 0.00 | 0.00 | 0.00 | 58 | 1010.7 |
| 20260509164946 | 20 | 10 | 14.5 | 29.0 | 0.00 | 0.00 | 0.00 | 58 | 1010.8 |
| 20260509164446 | 20 | 95 | 16.1 | 24.1 | 0.00 | 0.00 | 0.00 | 59 | 1010.8 |
| 20260509163946 | 20 | 354 | 16.1 | 29.0 | 0.00 | 0.00 | 0.00 | 59 | 1010.8 |
| 20260509163450 | 20 | 10 | 16.1 | 29.0 | 0.00 | 0.00 | 0.00 | 57 | 1010.8 |
| 20260509162946 | 20 | 33 | 14.5 | 29.0 | 0.00 | 0.00 | 0.00 | 58 | 1010.9 |
| 20260509162446 | 20 | 10 | 12.9 | 25.7 | 0.00 | 0.00 | 0.00 | 57 | 1010.9 |
| 20260509161946 | 20 | 48 | 12.9 | 19.3 | 0.00 | 0.00 | 0.00 | 57 | 1011.0 |
| 20260509161446 | 21 | 68 | 14.5 | 25.7 | 0.00 | 0.00 | 0.00 | 56 | 1011.0 |
| 20260509160946 | 20 | 13 | 14.5 | 29.0 | 0.00 | 0.00 | 0.00 | 58 | 1011.1 |
| 20260509160446 | 20 | 83 | 12.9 | 25.7 | 0.00 | 0.00 | 0.00 | 58 | 1011.1 |
| 20260509155946 | 20 | 54 | 12.9 | 29.0 | 0.00 | 0.00 | 0.00 | 58 | 1011.1 |
| 20260509155446 | 19 | 347 | 12.9 | 20.9 | 0.00 | 0.00 | 0.00 | 60 | 1011.2 |
| 20260509154946 | 18 | 10 | 12.9 | 27.4 | 0.00 | 0.00 | 0.00 | 60 | 1011.3 |
| 20260509154446 | 18 | 30 | 12.9 | 24.1 | 0.00 | 0.00 | 0.00 | 60 | 1011.4 |
| 20260509153946 | 18 | 41 | 12.9 | 22.5 | 0.00 | 0.00 | 0.00 | 60 | 1011.4 |
| 20260509153446 | 18 | 16 | 14.5 | 29.0 | 0.00 | 0.00 | 0.00 | 60 | 1011.4 |
| 20260509152946 | 19 | 100 | 14.5 | 25.7 | 0.00 | 0.00 | 0.00 | 58 | 1011.4 |
| 20260509152446 | 20 | 17 | 16.1 | 29.0 | 0.00 | 0.00 | 0.00 | 56 | 1011.3 |
| 20260509151946 | 20 | 101 | 14.5 | 24.1 | 0.00 | 0.00 | 0.00 | 55 | 1011.3 |
| 20260509151446 | 20 | 37 | 14.5 | 25.7 | 0.00 | 0.00 | 0.00 | 55 | 1011.2 |
| 20260509150946 | 20 | 334 | 14.5 | 29.0 | 0.00 | 0.00 | 0.00 | 54 | 1011.3 |
| 20260509150446 | 21 | 326 | 14.5 | 25.7 | 0.00 | 0.00 | 0.00 | 53 | 1011.2 |
| 20260509145946 | 21 | 28 | 16.1 | 30.6 | 0.00 | 0.00 | 0.00 | 53 | 1011.3 |
| 20260509145446 | 22 | 13 | 16.1 | 24.1 | 0.00 | 0.00 | 0.00 | 51 | 1011.3 |
| 20260509144946 | 22 | 52 | 16.1 | 25.7 | 0.00 | 0.00 | 0.00 | 52 | 1011.3 |
| 20260509144446 | 21 | 30 | 16.1 | 29.0 | 0.00 | 0.00 | 0.00 | 52 | 1011.5 |
| 20260509143946 | 21 | 51 | 14.5 | 24.1 | 0.00 | 0.00 | 0.00 | 53 | 1011.6 |
| 20260509143446 | 21 | 77 | 12.9 | 22.5 | 0.00 | 0.00 | 0.00 | 51 | 1011.7 |
| 20260509142946 | 21 | 46 | 14.5 | 25.7 | 0.00 | 0.00 | 0.00 | 51 | 1011.7 |
| 20260509142446 | 21 | 69 | 14.5 | 27.4 | 0.00 | 0.00 | 0.00 | 51 | 1011.6 |
| 20260509141946 | 21 | 24 | 14.5 | 22.5 | 0.00 | 0.00 | 0.00 | 51 | 1011.6 |
| 20260509141446 | 21 | 58 | 16.1 | 27.4 | 0.00 | 0.00 | 0.00 | 51 | 1011.6 |
| 20260509140946 | 21 | 43 | 16.1 | 27.4 | 0.00 | 0.00 | 0.00 | 50 | 1011.6 |
| 20260509140446 | 21 | 29 | 16.1 | 30.6 | 0.00 | 0.00 | 0.00 | 49 | 1011.6 |
| 20260509135946 | 21 | 64 | 17.7 | 32.2 | 0.00 | 0.00 | 0.00 | 52 | 1011.6 |
| 20260509135446 | 20 | 21 | 16.1 | 27.4 | 0.00 | 0.00 | 0.00 | 53 | 1011.7 |
| 20260509134946 | 20 | 105 | 16.1 | 32.2 | 0.00 | 0.00 | 0.00 | 53 | 1011.8 |
| 20260509134446 | 20 | 53 | 17.7 | 32.2 | 0.00 | 0.00 | 0.00 | 53 | 1011.8 |
| 20260509133946 | 20 | 28 | 17.7 | 32.2 | 0.00 | 0.00 | 0.00 | 53 | 1011.9 |
| 20260509133446 | 20 | 43 | 16.1 | 30.6 | 0.00 | 0.00 | 0.00 | 52 | 1011.9 |
| 20260509132946 | 21 | 46 | 14.5 | 35.4 | 0.00 | 0.00 | 0.00 | 50 | 1011.9 |
| 20260509132446 | 21 | 62 | 16.1 | 33.8 | 0.00 | 0.00 | 0.00 | 50 | 1011.9 |
| 20260509131946 | 21 | 14 | 17.7 | 27.4 | 0.00 | 0.00 | 0.00 | 50 | 1011.8 |
| 20260509131446 | 22 | 4 | 17.7 | 30.6 | 0.00 | 0.00 | 0.00 | 48 | 1011.7 |
| 20260509130946 | 21 | 73 | 17.7 | 29.0 | 0.00 | 0.00 | 0.00 | 50 | 1011.7 |
| 20260509130446 | 20 | 38 | 16.1 | 25.7 | 0.00 | 0.00 | 0.00 | 53 | 1011.7 |
| 20260509125946 | 19 | 85 | 16.1 | 29.0 | 0.00 | 0.00 | 0.00 | 54 | 1011.8 |
| 20260509124946 | 19 | 76 | 14.5 | 27.4 | 0.00 | 0.00 | 0.00 | 53 | 1012.0 |
| 20260509124446 | 20 | 95 | 12.9 | 22.5 | 0.00 | 0.00 | 0.00 | 54 | 1012.1 |
| 20260509123946 | 20 | 32 | 16.1 | 24.1 | 0.00 | 0.00 | 0.00 | 53 | 1012.1 |
| 20260509123446 | 20 | 54 | 16.1 | 27.4 | 0.00 | 0.00 | 0.00 | 52 | 1012.1 |
| 20260509122946 | 20 | 92 | 16.1 | 27.4 | 0.00 | 0.00 | 0.00 | 51 | 1011.9 |
| 20260509122446 | 20 | 343 | 17.7 | 29.0 | 0.00 | 0.00 | 0.00 | 50 | 1011.9 |
| 20260509121946 | 21 | 60 | 17.7 | 32.2 | 0.00 | 0.00 | 0.00 | 50 | 1011.9 |
| 20260509121446 | 21 | 56 | 19.3 | 30.6 | 0.00 | 0.00 | 0.00 | 50 | 1011.8 |
| 20260509120946 | 22 | 27 | 19.3 | 38.6 | 0.00 | 0.00 | 0.00 | 48 | 1011.7 |
| 20260509120446 | 22 | 39 | 17.7 | 37.0 | 0.00 | 0.00 | 0.00 | 48 | 1011.8 |
| 20260509115946 | 22 | 27 | 14.5 | 33.8 | 0.00 | 0.00 | 0.00 | 48 | 1011.7 |
| 20260509115446 | 22 | 25 | 16.1 | 27.4 | 0.00 | 0.00 | 0.00 | 49 | 1011.8 |
| 20260509114946 | 21 | 66 | 17.7 | 30.6 | 0.00 | 0.00 | 0.00 | 49 | 1011.8 |
| 20260509114446 | 21 | 49 | 17.7 | 32.2 | 0.00 | 0.00 | 0.00 | 50 | 1011.9 |
| 20260509113946 | 21 | 19 | 17.7 | 33.8 | 0.00 | 0.00 | 0.00 | 49 | 1011.9 |
| 20260509113446 | 22 | 59 | 16.1 | 29.0 | 0.00 | 0.00 | 0.00 | 49 | 1011.9 |
| 20260509112946 | 22 | 16 | 17.7 | 32.2 | 0.00 | 0.00 | 0.00 | 49 | 1012.0 |
| 20260509112446 | 22 | 34 | 16.1 | 29.0 | 0.00 | 0.00 | 0.00 | 49 | 1012.1 |
| 20260509111947 | 22 | 75 | 14.5 | 30.6 | 0.00 | 0.00 | 0.00 | 49 | 1012.2 |
| 20260509111446 | 22 | 10 | 12.9 | 24.1 | 0.00 | 0.00 | 0.00 | 49 | 1012.1 |
| 20260509110946 | 22 | 57 | 12.9 | 29.0 | 0.00 | 0.00 | 0.00 | 51 | 1012.3 |
| 20260509110446 | 21 | 63 | 14.5 | 25.7 | 0.00 | 0.00 | 0.00 | 52 | 1012.3 |
| 20260509105946 | 21 | 48 | 16.1 | 29.0 | 0.00 | 0.00 | 0.00 | 52 | 1012.4 |
| 20260509105446 | 21 | 72 | 16.1 | 25.7 | 0.00 | 0.00 | 0.00 | 53 | 1012.4 |
| 20260509104946 | 21 | 81 | 14.5 | 27.4 | 0.00 | 0.00 | 0.00 | 53 | 1012.4 |